Regional Weather Roundup
Issued by NWS Sterling, VA

Home | Current Version | Previous Version | Text Only | Print | Product List | Glossary Off
Versions: 1 2 3 4 5 6 7 8 9 10 11 12 13 14 15 16 17 18 19 20 21 22 23 24 25 26 27

000
ASUS41 KLWX 091610
RWRLWX

REGIONAL WEATHER ROUNDUP
NATIONAL WEATHER SERVICE BALTIMORE MD/WASHINGTON DC
1100 AM EST FRI DEC 09 2016

Note: "FAIR" indicates few or no clouds below 12,000 feet
with no significant weather and/or obstructions to visibility.
 TC=TEMPERATURE CELSIUS

 * =Non NWS site. Station does not report precipitation (e.g. rain,
    snow, etc.), thunder, or fog.

DCZ001-MDZ009-015-VAZ040>042-051-053>054-091700-
WASHINGTON METRO

CITY           SKY/WX    TMP DP  RH WIND       PRES   REMARKS
WASHINGTON NAT MOSUNNY   37  17  44 NW18G26   30.34S WCI  27
DULLES         MOSUNNY   34  16  47 NW23G32   30.33S WCI  22
ANDREWS AFB    SUNNY     35  15  44 NW18G26   30.30S WCI  24
FT BELVOIR     SUNNY     37  15  40 NW16      30.33S WCI  27
QUANTICO       SUNNY     38  17  42 NW12G25   30.36F
COLLEGE PARK*  SUNNY     34  16  47 W9G23     30.33R WCI  26
LEESBURG*      MOSUNNY   36  23  60 W24G31    30.34S WCI  24
MANASSAS*      SUNNY    N/A N/A N/A N12G21    30.36S
GAITHERSBURG*  SUNNY     34  14  44 NW15G29   30.34S WCI  24

$$

MDZ006>007-011-014-091700-
BALTIMORE METRO

CITY           SKY/WX    TMP DP  RH WIND       PRES   REMARKS
BWI AIRPORT    MOSUNNY   36  17  46 W20G30    30.30S WCI  25
MD SCIENCE CTR   N/A     36  15  42 MISG      30.31R
MARTIN STATE   SUNNY     37  21  52 W24G30    30.30S WCI  26
ANNAPOLIS      SUNNY     38  19  46 NW12      30.30S
FORT MEADE*    SUNNY     36  19  51 W18G24    30.34S WCI  25

$$

MDZ012-015-019>023-091700-
MARYLAND EASTERN SHORE

CITY           SKY/WX    TMP DP  RH WIND       PRES   REMARKS
OCEAN CITY     SUNNY     36  19  50 NW17G24   30.28S WCI  26
SALISBURY      SUNNY     36  19  50 NW15      30.29S WCI  27
BAY BRIDGE AP* SUNNY     36  19  51 W17G23    30.30S WCI  25
CAMBRIDGE*     SUNNY     34  19  55 NW16      30.31R WCI  23
EASTON*        SUNNY     37  18  44 NW17G25   30.33S WCI  28

$$

MDZ017>025-091700-
SOUTHERN MARYLAND

CITY           SKY/WX    TMP DP  RH WIND       PRES   REMARKS
PATUXENT RIVER MOSUNNY   37  18  46 NW14      30.32S WCI  28
ST INIGOES     SUNNY     37  17  44 W17G23    30.32S WCI  27
LEONARDTOWN*   SUNNY     36  18  48 W14G23    30.33F WCI  27

$$

MDZ003>005-091700-
NORTH CENTRAL MARYLAND

CITY           SKY/WX    TMP DP  RH WIND       PRES   REMARKS
FREDERICK*     MOSUNNY   34  19  55 NW22      30.35S WCI  22
HAGERSTOWN APT MOSUNNY   34  15  46 NW17G26   30.31R WCI  23
WESTMINSTER*   NOT AVBL

$$

MDZ501>502-091700-
WESTERN MARYLAND

CITY           SKY/WX    TMP DP  RH WIND       PRES   REMARKS
OAKLAND*       FOG       16  14  93 W9G16     30.22R VSB 3/4 WCI   4
CUMBERLAND*    NOT AVBL

$$

VAZ025>031-091700-
SHENANDOAH VALLEY

CITY           SKY/WX    TMP DP  RH WIND       PRES   REMARKS
WINCHESTER*    MOSUNNY   30  16  55 W15G26    30.34R WCI  19
FRONT ROYAL*   FAIR      34  18  51 NW7       30.34R
LURAY*         FAIR      34  19  55 W6        30.34S
NEW MARKET*    FAIR      32  11  41 NW5       30.34S
STAUNTON*      SUNNY     32  11  41 NW10      30.36R WCI  23
WAYNESBORO*    FAIR      31   8  37 W8        30.33S WCI  24

$$

WVZ021-048>050-054>055-091700-
EASTERN WEST VIRGINIA PANHANDLE

CITY           SKY/WX    TMP DP  RH WIND       PRES   REMARKS
MARTINSBURG    MOSUNNY   33  16  49 W17G28    30.33S WCI  22
PETERSBURG*    CLOUDY    32  15  49 W17G28    30.37S WCI  21

$$

VAZ036>039-050-091700-
CENTRAL FOOTHILLS

CITY           SKY/WX    TMP DP  RH WIND       PRES   REMARKS
CHARLOTTESVILL SUNNY     36  12  37 N10       30.36R WCI  28
CULPEPER*      SUNNY     37  15  40 W15       30.37S WCI  28
ORANGE*          N/A     37  14  38 W9G16     30.37R
GORDONSVILLE*  FAIR      35  13  39 NW6       30.36R
WARRENTON*     FAIR      38   9  29 NW9G17    30.35S

$$

VAZ055>057-091700-
NORTH AND CENTRAL PIEDMONT

CITY           SKY/WX    TMP DP  RH WIND       PRES   REMARKS
FREDERICKSBRG* SUNNY     37  17  45 W12G17    30.36S
STAFFORD*      SUNNY     35  15  44 NW15G23   30.40S WCI  26

$$

NCZ024-NYZ072-PAZ021-071-VAZ022-071-091700-
OTHER REGIONAL OBSERVATIONS

CITY           SKY/WX    TMP DP  RH WIND       PRES   REMARKS
NEW YORK CITY    N/A     39  19  45 MISG        N/A
PHILADELPHIA   PTSUNNY   36  17  46 W20G26    30.24R WCI  25
PITTSBURGH     CLOUDY    25  18  74 W13       30.36R WCI  14
ROANOKE        MOSUNNY   30  10  43 NW13G23   30.43R WCI  20
RICHMOND       SUNNY     37  12  35 NW15G23   30.37R WCI  28
RALEIGH        SUNNY     37  14  38 NW9G17    30.42R

$$

ANZ530>537-091700-
MARINE OBSERVATIONS

STATION/POSITION TIME  TEMP    WIND        PRES
                       AIR SEA DIR/SP/G
                 (UTC) (F)     (DEG/KT/KT) (MB)
THOMAS PT LIGHT  1600   35 46  310/ 24/ 28   N/A
BALT KEY BRIDGE  1548   34     280/ 24/ 28 1025.3F
COVE POINT       1548   34     330/ 15/ 20 1027.1S
LEWISETTA        1548   35 45  320/ 18/ 23 1027.0R
SOLOMONS ISLAND  1548   36 49  310/  9/ 13   N/A
PINEY POINT      1542          320/ 21/ 24   N/A

$$





USA.gov is the U.S. government's official web portal to all federal, state and local government web resources and services.